Location: Guayaquil
(2.1667°S, 79.9000°W)
Time: 14:40:45
(UTC-05:00)

Hubble Space Telescope - Visible Passes

Search period start: 19 November 2018 00:00
Search period end: 29 November 2018 00:00
Orbit: 537 x 541 km, 28.5° (Epoch: 18 November)

Date Brightness Start Highest point End Pass type
(mag) Time Alt. Az. Time Alt. Az. Time Alt. Az.
19 Nov 3.6 05:37:41 10° S 05:40:09 15° SSE 05:42:37 10° ESE visible
19 Nov 0.8 19:12:42 10° NW 19:16:47 59° NNE 19:18:40 29° E visible
20 Nov 3.3 05:26:40 10° SSW 05:29:48 20° SSE 05:32:55 10° ESE visible
20 Nov 0.7 19:02:13 10° WNW 19:06:22 86° NNE 19:10:08 12° ESE visible
20 Nov 4.0 20:44:58 10° WSW 20:45:34 12° WSW 20:45:34 12° WSW visible
21 Nov 2.8 05:15:51 10° SSW 05:19:25 28° SSE 05:22:59 10° E visible
21 Nov 1.1 18:51:50 10° WNW 18:55:57 66° SSW 19:00:04 10° SE visible
21 Nov 3.8 20:35:34 10° SW 20:37:02 12° SSW 20:37:02 12° SSW visible
22 Nov 2.2 05:05:09 10° SW 05:09:02 38° SSE 05:12:53 10° E visible
22 Nov 1.9 18:41:34 10° WNW 18:45:32 45° SSW 18:49:31 10° SE visible
23 Nov 1.4 04:54:33 10° SW 04:58:37 55° SSE 05:02:40 10° ENE visible
23 Nov 2.6 18:31:25 10° W 18:35:08 32° SSW 18:38:52 10° SE visible
24 Nov 0.8 04:45:40 23° SW 04:48:12 81° SSE 04:52:20 10° ENE visible
25 Nov 0.6 04:37:07 57° W 04:37:47 69° NNW 04:41:53 10° NE visible
26 Nov 1.6 04:28:31 36° NNE 04:28:31 36° NNE 04:31:20 10° NE visible
27 Nov 3.0 04:19:47 15° NNE 04:19:47 15° NNE 04:20:41 10° NE visible
